owner,sensor,date,latitude,longitude,vertical_datum,direction_of_sea_water_velocity,sea_water_speed,upward_sea_water_velocity,qcFlag 
TABS,ioos:station:wmo:42048:1,2001-08-01T00:00:00Z,27.9396,-96.8429,2.0,13.45480944,14.09689682,-99999.0,'11111222,11111222,99999999' 
TABS,ioos:station:wmo:42048:1,2001-08-01T00:30:00Z,27.9396,-96.8429,2.0,10.61500256,14.5489656,-99999.0,'11111222,11111222,99999999' 
TABS,ioos:station:wmo:42048:1,2001-08-01T01:00:00Z,27.9396,-96.8429,2.0,7.438747375,13.82635888,-99999.0,'11111222,11111222,99999999' 
TABS,ioos:station:wmo:42048:1,2001-08-01T01:30:00Z,27.9396,-96.8429,2.0,7.968180443,13.99511343,-99999.0,'11111222,11111222,99999999' 
TABS,ioos:station:wmo:42048:1,2001-08-01T02:00:00Z,27.9396,-96.8429,2.0,14.19538208,13.98708333,-99999.0,'11111222,11111222,99999999' 
TABS,ioos:station:wmo:42048:1,2001-08-01T02:30:00Z,27.9396,-96.8429,2.0,14.95528525,15.57764103,-99999.0,'11111222,11111222,99999999' 
TABS,ioos:station:wmo:42048:1,2001-08-01T03:00:00Z,27.9396,-96.8429,2.0,18.2382247,13.80342349,-99999.0,'11111222,11111222,99999999' 
TABS,ioos:station:wmo:42048:1,2001-08-01T03:30:00Z,27.9396,-96.8429,2.0,19.64819028,13.2940325,-99999.0,'11111222,11111222,99999999' 
TABS,ioos:station:wmo:42048:1,2001-08-01T04:00:00Z,27.9396,-96.8429,2.0,21.9040411,15.57429292,-99999.0,'11111222,11111222,99999999' 
TABS,ioos:station:wmo:42048:1,2001-08-01T04:30:00Z,27.9396,-96.8429,2.0,20.35170549,15.41207643,-99999.0,'11111222,11111222,99999999' 
TABS,ioos:station:wmo:42048:1,2001-08-01T05:00:00Z,27.9396,-96.8429,2.0,20.80023223,15.93880799,-99999.0,'11111222,11111222,99999999' 
TABS,ioos:station:wmo:42048:1,2001-08-01T05:30:00Z,27.9396,-96.8429,2.0,22.79190206,19.231625,-99999.0,'11111222,11111222,99999999' 
TABS,ioos:station:wmo:42048:1,2001-08-01T06:00:00Z,27.9396,-96.8429,2.0,22.47861608,18.70082618,-99999.0,'11111222,11111222,99999999' 
TABS,ioos:station:wmo:42048:1,2001-08-01T06:30:00Z,27.9396,-96.8429,2.0,28.63323988,20.20037871,-99999.0,'11111222,11111222,99999999' 
TABS,ioos:station:wmo:42048:1,2001-08-01T07:00:00Z,27.9396,-96.8429,2.0,28.10814348,19.93059206,-99999.0,'11111222,11111222,99999999' 
TABS,ioos:station:wmo:42048:1,2001-08-01T07:30:00Z,27.9396,-96.8429,2.0,30.38011636,20.03035946,-99999.0,'11111222,11111222,99999999' 
TABS,ioos:station:wmo:42048:1,2001-08-01T08:00:00Z,27.9396,-96.8429,2.0,30.49717927,19.36969282,-99999.0,'11111222,11111222,99999999' 
TABS,ioos:station:wmo:42048:1,2001-08-01T08:30:00Z,27.9396,-96.8429,2.0,37.12596375,19.25219208,-99999.0,'11111222,11111222,99999999' 
TABS,ioos:station:wmo:42048:1,2001-08-01T09:00:00Z,27.9396,-96.8429,2.0,40.59445005,17.85771542,-99999.0,'11111222,11111222,99999999' 
TABS,ioos:station:wmo:42048:1,2001-08-01T09:30:00Z,27.9396,-96.8429,2.0,41.51905133,19.09883766,-99999.0,'11111222,11111222,99999999' 
TABS,ioos:station:wmo:42048:1,2001-08-01T10:00:00Z,27.9396,-96.8429,2.0,32.23535864,19.55393822,-99999.0,'11111222,11111222,99999999' 
TABS,ioos:station:wmo:42048:1,2001-08-01T10:30:00Z,27.9396,-96.8429,2.0,36.44206197,19.81455273,-99999.0,'11111222,11111222,99999999' 
TABS,ioos:station:wmo:42048:1,2001-08-01T11:00:00Z,27.9396,-96.8429,2.0,40.28327719,17.97188081,-99999.0,'11111222,11111222,99999999' 
TABS,ioos:station:wmo:42048:1,2001-08-01T11:30:00Z,27.9396,-96.8429,2.0,36.51150381,18.53836293,-99999.0,'11111222,11111222,99999999' 
TABS,ioos:station:wmo:42048:1,2001-08-01T12:00:00Z,27.9396,-96.8429,2.0,40.49981678,20.18649549,-99999.0,'11111222,11111222,99999999' 
TABS,ioos:station:wmo:42048:1,2001-08-01T12:30:00Z,27.9396,-96.8429,2.0,40.74187625,21.23647099,-99999.0,'11111222,11111222,99999999' 
TABS,ioos:station:wmo:42048:1,2001-08-01T13:00:00Z,27.9396,-96.8429,2.0,36.55038422,21.51033473,-99999.0,'11111222,11111222,99999999' 
TABS,ioos:station:wmo:42048:1,2001-08-01T13:30:00Z,27.9396,-96.8429,2.0,38.25222235,22.3865138,-99999.0,'11111222,11111222,99999999' 
TABS,ioos:station:wmo:42048:1,2001-08-01T14:00:00Z,27.9396,-96.8429,2.0,32.22542427,24.3038104,-99999.0,'11111222,11111222,99999999' 
TABS,ioos:station:wmo:42048:1,2001-08-01T14:30:00Z,27.9396,-96.8429,2.0,32.18160475,25.17824855,-99999.0,'11111222,11111222,99999999' 
TABS,ioos:station:wmo:42048:1,2001-08-01T15:00:00Z,27.9396,-96.8429,2.0,42.77958784,21.71741467,-99999.0,'11111222,11111222,99999999' 
TABS,ioos:station:wmo:42048:1,2001-08-01T15:30:00Z,27.9396,-96.8429,2.0,41.80298966,20.79301806,-99999.0,'11111222,11111222,99999999' 
TABS,ioos:station:wmo:42048:1,2001-08-01T16:00:00Z,27.9396,-96.8429,2.0,46.47901024,20.54829677,-99999.0,'11111222,11111222,99999999' 
TABS,ioos:station:wmo:42048:1,2001-08-01T16:30:00Z,27.9396,-96.8429,2.0,50.92486946,19.38635861,-99999.0,'11111222,11111222,99999999' 
TABS,ioos:station:wmo:42048:1,2001-08-01T17:00:00Z,27.9396,-96.8429,2.0,46.07472037,16.96647577,-99999.0,'11111222,11111222,99999999' 
TABS,ioos:station:wmo:42048:1,2001-08-01T17:30:00Z,27.9396,-96.8429,2.0,40.11033714,17.337719,-99999.0,'11111222,11111222,99999999' 
TABS,ioos:station:wmo:42048:1,2001-08-01T18:00:00Z,27.9396,-96.8429,2.0,39.97104341,20.40788328,-99999.0,'11111222,11111222,99999999' 
TABS,ioos:station:wmo:42048:1,2001-08-01T18:30:00Z,27.9396,-96.8429,2.0,32.65387753,20.70202406,-99999.0,'11111222,11111222,99999999' 
TABS,ioos:station:wmo:42048:1,2001-08-01T19:00:00Z,27.9396,-96.8429,2.0,34.02353501,20.49929267,-99999.0,'11111222,11111222,99999999' 
TABS,ioos:station:wmo:42048:1,2001-08-01T19:30:00Z,27.9396,-96.8429,2.0,26.75868344,21.18910097,-99999.0,'11111222,11111222,99999999' 
TABS,ioos:station:wmo:42048:1,2001-08-01T20:00:00Z,27.9396,-96.8429,2.0,30.69361321,22.17672879,-99999.0,'11111222,11111222,99999999' 
TABS,ioos:station:wmo:42048:1,2001-08-01T20:30:00Z,27.9396,-96.8429,2.0,34.95102592,20.54552263,-99999.0,'11111222,11111222,99999999' 
TABS,ioos:station:wmo:42048:1,2001-08-01T21:00:00Z,27.9396,-96.8429,2.0,28.88997665,21.27804737,-99999.0,'11111222,11111222,99999999' 
TABS,ioos:station:wmo:42048:1,2001-08-01T21:30:00Z,27.9396,-96.8429,2.0,30.94580027,21.72201188,-99999.0,'11111222,11111222,99999999' 
TABS,ioos:station:wmo:42048:1,2001-08-01T22:00:00Z,27.9396,-96.8429,2.0,37.73668014,19.96628408,-99999.0,'11111222,11111222,99999999' 
TABS,ioos:station:wmo:42048:1,2001-08-01T22:30:00Z,27.9396,-96.8429,2.0,30.05276836,19.62877989,-99999.0,'11111222,11111222,99999999' 
TABS,ioos:station:wmo:42048:1,2001-08-01T23:00:00Z,27.9396,-96.8429,2.0,30.63341,17.83957959,-99999.0,'11111222,11111222,99999999' 
TABS,ioos:station:wmo:42048:1,2001-08-01T23:30:00Z,27.9396,-96.8429,2.0,32.86881253,17.02549852,-99999.0,'11111222,11111222,99999999' 
TABS,ioos:station:wmo:42048:1,2001-08-02T00:00:00Z,27.9396,-96.8429,2.0,40.07213519,15.96893234,-99999.0,'11111222,11111222,99999999' 
TABS,ioos:station:wmo:42048:1,2001-08-02T00:30:00Z,27.9396,-96.8429,2.0,39.88465466,13.00599862,-99999.0,'11111222,11111222,99999999' 
TABS,ioos:station:wmo:42048:1,2001-08-02T01:00:00Z,27.9396,-96.8429,2.0,36.43389776,11.29832731,-99999.0,'11111222,11111222,99999999' 
TABS,ioos:station:wmo:42048:1,2001-08-02T01:30:00Z,27.9396,-96.8429,2.0,35.64073497,11.00053181,-99999.0,'11111222,11111222,99999999' 
TABS,ioos:station:wmo:42048:1,2001-08-02T02:00:00Z,27.9396,-96.8429,2.0,31.94536067,12.11472245,-99999.0,'11111222,11111222,99999999' 
TABS,ioos:station:wmo:42048:1,2001-08-02T02:30:00Z,27.9396,-96.8429,2.0,32.01991592,12.65531509,-99999.0,'11111222,11111222,99999999' 
TABS,ioos:station:wmo:42048:1,2001-08-02T03:00:00Z,27.9396,-96.8429,2.0,32.55417382,12.73009819,-99999.0,'11111222,11111222,99999999' 
TABS,ioos:station:wmo:42048:1,2001-08-02T03:30:00Z,27.9396,-96.8429,2.0,32.7547909,12.40197565,-99999.0,'11111222,11111222,99999999' 
TABS,ioos:station:wmo:42048:1,2001-08-02T04:00:00Z,27.9396,-96.8429,2.0,25.58806041,12.06310491,-99999.0,'11111222,11111222,99999999' 
TABS,ioos:station:wmo:42048:1,2001-08-02T04:30:00Z,27.9396,-96.8429,2.0,27.53771738,11.59344642,-99999.0,'11111222,11111222,99999999' 
TABS,ioos:station:wmo:42048:1,2001-08-02T05:00:00Z,27.9396,-96.8429,2.0,34.12507241,11.69341695,-99999.0,'11111222,11111222,99999999' 
TABS,ioos:station:wmo:42048:1,2001-08-02T05:30:00Z,27.9396,-96.8429,2.0,30.00677713,12.21754885,-99999.0,'11111222,11111222,99999999' 
TABS,ioos:station:wmo:42048:1,2001-08-02T06:00:00Z,27.9396,-96.8429,2.0,31.21013804,12.37030719,-99999.0,'11111222,11111222,99999999' 
TABS,ioos:station:wmo:42048:1,2001-08-02T06:30:00Z,27.9396,-96.8429,2.0,35.30985975,13.14887448,-99999.0,'11111222,11111222,99999999' 
TABS,ioos:station:wmo:42048:1,2001-08-02T07:00:00Z,27.9396,-96.8429,2.0,30.99405812,13.0304643,-99999.0,'11111222,11111222,99999999' 
TABS,ioos:station:wmo:42048:1,2001-08-02T07:30:00Z,27.9396,-96.8429,2.0,37.14681029,11.59213526,-99999.0,'11111222,11111222,99999999' 
TABS,ioos:station:wmo:42048:1,2001-08-02T08:00:00Z,27.9396,-96.8429,2.0,39.81268855,10.4798187,-99999.0,'11111222,11111222,99999999' 
TABS,ioos:station:wmo:42048:1,2001-08-02T08:30:00Z,27.9396,-96.8429,2.0,42.42332135,9.279552791,-99999.0,'11133222,11111222,99999999' 
TABS,ioos:station:wmo:42048:1,2001-08-02T09:00:00Z,27.9396,-96.8429,2.0,31.43258147,9.434452819,-99999.0,'11133222,11111222,99999999' 
TABS,ioos:station:wmo:42048:1,2001-08-02T09:30:00Z,27.9396,-96.8429,2.0,35.34023474,8.765124072,-99999.0,'11133222,11111222,99999999' 
TABS,ioos:station:wmo:42048:1,2001-08-02T10:00:00Z,27.9396,-96.8429,2.0,53.30948201,10.22605007,-99999.0,'11111222,11111222,99999999' 
TABS,ioos:station:wmo:42048:1,2001-08-02T10:30:00Z,27.9396,-96.8429,2.0,40.61433496,9.61652744,-99999.0,'11133222,11111222,99999999' 
TABS,ioos:station:wmo:42048:1,2001-08-02T11:00:00Z,27.9396,-96.8429,2.0,49.51408313,10.78146558,-99999.0,'11111222,11111222,99999999' 
TABS,ioos:station:wmo:42048:1,2001-08-02T11:30:00Z,27.9396,-96.8429,2.0,55.10552797,9.631723626,-99999.0,'11133222,11111222,99999999' 
TABS,ioos:station:wmo:42048:1,2001-08-02T12:00:00Z,27.9396,-96.8429,2.0,48.12376032,9.602635055,-99999.0,'11133222,11111222,99999999' 
TABS,ioos:station:wmo:42048:1,2001-08-02T12:30:00Z,27.9396,-96.8429,2.0,54.28101883,5.875185103,-99999.0,'11133222,11111222,99999999' 
TABS,ioos:station:wmo:42048:1,2001-08-02T13:00:00Z,27.9396,-96.8429,2.0,55.68702354,7.397364396,-99999.0,'11133222,11111222,99999999' 
TABS,ioos:station:wmo:42048:1,2001-08-02T13:30:00Z,27.9396,-96.8429,2.0,54.77361666,6.206552989,-99999.0,'11133222,11111222,99999999' 
TABS,ioos:station:wmo:42048:1,2001-08-02T14:00:00Z,27.9396,-96.8429,2.0,37.77193222,5.844724117,-99999.0,'11133222,11111222,99999999' 
TABS,ioos:station:wmo:42048:1,2001-08-02T14:30:00Z,27.9396,-96.8429,2.0,45.00010523,5.260874452,-99999.0,'11133222,11111222,99999999' 
TABS,ioos:station:wmo:42048:1,2001-08-02T15:00:00Z,27.9396,-96.8429,2.0,30.99216081,3.476276744,-99999.0,'11133222,11111222,99999999' 
TABS,ioos:station:wmo:42048:1,2001-08-02T15:30:00Z,27.9396,-96.8429,2.0,15.87301236,3.254074369,-99999.0,'11133222,11111222,99999999' 
TABS,ioos:station:wmo:42048:1,2001-08-02T16:00:00Z,27.9396,-96.8429,2.0,33.0645306,3.555840266,-99999.0,'11133222,11111222,99999999' 
TABS,ioos:station:wmo:42048:1,2001-08-02T16:30:00Z,27.9396,-96.8429,2.0,28.08596562,2.527647127,-99999.0,'11133222,11111222,99999999' 
TABS,ioos:station:wmo:42048:1,2001-08-02T17:00:00Z,27.9396,-96.8429,2.0,13.05948895,1.991506967,-99999.0,'11133222,11111222,99999999' 
TABS,ioos:station:wmo:42048:1,2001-08-02T17:30:00Z,27.9396,-96.8429,2.0,325.3666141,2.357795581,-99999.0,'11133222,11111222,99999999' 
TABS,ioos:station:wmo:42048:1,2001-08-02T18:00:00Z,27.9396,-96.8429,2.0,318.8484862,1.580411339,-99999.0,'11133222,11111222,99999999' 
TABS,ioos:station:wmo:42048:1,2001-08-02T18:30:00Z,27.9396,-96.8429,2.0,302.0489876,2.807935184,-99999.0,'11133222,11111222,99999999' 
TABS,ioos:station:wmo:42048:1,2001-08-02T19:00:00Z,27.9396,-96.8429,2.0,302.0489876,2.807935184,-99999.0,'11133222,11111222,99999999' 
TABS,ioos:station:wmo:42048:1,2001-08-02T19:30:00Z,27.9396,-96.8429,2.0,264.5247079,3.144344129,-99999.0,'11133222,11111222,99999999' 
TABS,ioos:station:wmo:42048:1,2001-08-02T20:00:00Z,27.9396,-96.8429,2.0,260.0432055,5.147523676,-99999.0,'11133222,11111222,99999999' 
TABS,ioos:station:wmo:42048:1,2001-08-02T20:30:00Z,27.9396,-96.8429,2.0,265.2027913,7.175130661,-99999.0,'11133222,11111222,99999999' 
TABS,ioos:station:wmo:42048:1,2001-08-02T21:00:00Z,27.9396,-96.8429,2.0,255.6556405,7.22524048,-99999.0,'11133222,11111222,99999999' 
TABS,ioos:station:wmo:42048:1,2001-08-02T21:30:00Z,27.9396,-96.8429,2.0,222.1181073,4.219691932,-99999.0,'11133222,11111222,99999999' 
TABS,ioos:station:wmo:42048:1,2001-08-02T22:00:00Z,27.9396,-96.8429,2.0,242.9007951,7.200451375,-99999.0,'11133222,11111222,99999999' 
TABS,ioos:station:wmo:42048:1,2001-08-02T22:30:00Z,27.9396,-96.8429,2.0,248.3470104,9.295939974,-99999.0,'11133222,11111222,99999999' 
TABS,ioos:station:wmo:42048:1,2001-08-02T23:00:00Z,27.9396,-96.8429,2.0,237.6499803,7.232496111,-99999.0,'11133222,11111222,99999999' 
TABS,ioos:station:wmo:42048:1,2001-08-02T23:30:00Z,27.9396,-96.8429,2.0,232.9676543,9.896039612,-99999.0,'11133222,11111222,99999999' 
TABS,ioos:station:wmo:42048:1,2001-08-03T00:00:00Z,27.9396,-96.8429,2.0,226.1768264,10.32593821,-99999.0,'11111222,11111222,99999999' 
TABS,ioos:station:wmo:42048:1,2001-08-03T00:30:00Z,27.9396,-96.8429,2.0,220.6800313,12.57980922,-99999.0,'11111222,11111222,99999999' 
TABS,ioos:station:wmo:42048:1,2001-08-03T01:00:00Z,27.9396,-96.8429,2.0,222.5275452,12.13110053,-99999.0,'11111222,11111222,99999999' 
TABS,ioos:station:wmo:42048:1,2001-08-03T01:30:00Z,27.9396,-96.8429,2.0,217.417653,12.75458349,-99999.0,'11111222,11111222,99999999' 
TABS,ioos:station:wmo:42048:1,2001-08-03T02:00:00Z,27.9396,-96.8429,2.0,234.229936,38.74914322,-99999.0,'11111222,11111222,99999999' 
TABS,ioos:station:wmo:42048:1,2001-08-03T02:30:00Z,27.9396,-96.8429,2.0,264.7670626,81.69042172,-99999.0,'11111222,11111222,99999999' 
TABS,ioos:station:wmo:42048:1,2001-08-03T03:00:00Z,27.9396,-96.8429,2.0,260.9522128,97.61445846,-99999.0,'11111222,11111222,99999999' 
TABS,ioos:station:wmo:42048:1,2001-08-03T03:30:00Z,27.9396,-96.8429,2.0,248.2475071,99.30061883,-99999.0,'11111222,11111222,99999999' 
TABS,ioos:station:wmo:42048:1,2001-08-03T04:00:00Z,27.9396,-96.8429,2.0,238.6340861,109.0689222,-99999.0,'11111222,11111222,99999999' 
TABS,ioos:station:wmo:42048:1,2001-08-03T04:30:00Z,27.9396,-96.8429,2.0,265.4736606,113.2932796,-99999.0,'11111222,11111222,99999999' 
TABS,ioos:station:wmo:42048:1,2001-08-03T05:00:00Z,27.9396,-96.8429,2.0,249.5693946,113.5313569,-99999.0,'11111222,11111222,99999999' 
TABS,ioos:station:wmo:42048:1,2001-08-03T05:30:00Z,27.9396,-96.8429,2.0,229.7105424,103.9209935,-99999.0,'11111222,11111222,99999999' 
TABS,ioos:station:wmo:42048:1,2001-08-03T06:00:00Z,27.9396,-96.8429,2.0,226.7327386,27.82323669,-99999.0,'11111222,11111222,99999999' 
TABS,ioos:station:wmo:42048:1,2001-08-03T06:30:00Z,27.9396,-96.8429,2.0,227.9690431,26.48134815,-99999.0,'11111222,11111222,99999999' 
TABS,ioos:station:wmo:42048:1,2001-08-03T07:00:00Z,27.9396,-96.8429,2.0,227.2747683,29.21239463,-99999.0,'11111222,11111222,99999999' 
TABS,ioos:station:wmo:42048:1,2001-08-03T07:30:00Z,27.9396,-96.8429,2.0,226.871589,32.25421058,-99999.0,'11111222,11111222,99999999' 
TABS,ioos:station:wmo:42048:1,2001-08-03T08:00:00Z,27.9396,-96.8429,2.0,230.6504891,31.02303983,-99999.0,'11111222,11111222,99999999' 
TABS,ioos:station:wmo:42048:1,2001-08-03T08:30:00Z,27.9396,-96.8429,2.0,227.8538633,29.53713595,-99999.0,'11111222,11111222,99999999' 
TABS,ioos:station:wmo:42048:1,2001-08-03T09:00:00Z,27.9396,-96.8429,2.0,230.1993537,27.93252584,-99999.0,'11111222,11111222,99999999' 
TABS,ioos:station:wmo:42048:1,2001-08-03T09:30:00Z,27.9396,-96.8429,2.0,227.0165892,29.9362339,-99999.0,'11111222,11111222,99999999' 
TABS,ioos:station:wmo:42048:1,2001-08-03T10:00:00Z,27.9396,-96.8429,2.0,231.3345012,33.3883887,-99999.0,'11111222,11111222,99999999' 
TABS,ioos:station:wmo:42048:1,2001-08-03T10:30:00Z,27.9396,-96.8429,2.0,229.5095152,30.75537351,-99999.0,'11111222,11111222,99999999' 
TABS,ioos:station:wmo:42048:1,2001-08-03T11:00:00Z,27.9396,-96.8429,2.0,226.6668107,32.56898218,-99999.0,'11111222,11111222,99999999' 
TABS,ioos:station:wmo:42048:1,2001-08-03T11:30:00Z,27.9396,-96.8429,2.0,228.3754971,30.50094425,-99999.0,'11111222,11111222,99999999' 
TABS,ioos:station:wmo:42048:1,2001-08-03T12:00:00Z,27.9396,-96.8429,2.0,223.8384451,31.40199038,-99999.0,'11111222,11111222,99999999' 
TABS,ioos:station:wmo:42048:1,2001-08-03T12:30:00Z,27.9396,-96.8429,2.0,224.1531536,28.2378558,-99999.0,'11111222,11111222,99999999' 
TABS,ioos:station:wmo:42048:1,2001-08-03T13:00:00Z,27.9396,-96.8429,2.0,221.7178759,27.54455482,-99999.0,'11111222,11111222,99999999' 
TABS,ioos:station:wmo:42048:1,2001-08-03T13:30:00Z,27.9396,-96.8429,2.0,226.9746137,30.57224395,-99999.0,'11111222,11111222,99999999' 
TABS,ioos:station:wmo:42048:1,2001-08-03T14:00:00Z,27.9396,-96.8429,2.0,223.4619155,31.61906071,-99999.0,'11111222,11111222,99999999' 
TABS,ioos:station:wmo:42048:1,2001-08-03T14:30:00Z,27.9396,-96.8429,2.0,224.1258988,27.82081595,-99999.0,'11111222,11111222,99999999' 
TABS,ioos:station:wmo:42048:1,2001-08-03T15:00:00Z,27.9396,-96.8429,2.0,231.6630924,29.06752311,-99999.0,'11111222,11111222,99999999' 
TABS,ioos:station:wmo:42048:1,2001-08-03T15:30:00Z,27.9396,-96.8429,2.0,231.8974655,26.31808694,-99999.0,'11111222,11111222,99999999' 
TABS,ioos:station:wmo:42048:1,2001-08-03T16:00:00Z,27.9396,-96.8429,2.0,233.5067351,27.05458556,-99999.0,'11111222,11111222,99999999' 
TABS,ioos:station:wmo:42048:1,2001-08-03T16:30:00Z,27.9396,-96.8429,2.0,230.7719187,26.15414308,-99999.0,'11111222,11111222,99999999' 
TABS,ioos:station:wmo:42048:1,2001-08-03T17:00:00Z,27.9396,-96.8429,2.0,232.7151613,29.02075981,-99999.0,'11111222,11111222,99999999' 
TABS,ioos:station:wmo:42048:1,2001-08-03T17:30:00Z,27.9396,-96.8429,2.0,234.0472352,31.47603533,-99999.0,'11111222,11111222,99999999' 
TABS,ioos:station:wmo:42048:1,2001-08-03T18:00:00Z,27.9396,-96.8429,2.0,236.5426489,30.00120831,-99999.0,'11111222,11111222,99999999' 
TABS,ioos:station:wmo:42048:1,2001-08-03T18:30:00Z,27.9396,-96.8429,2.0,237.2231492,28.35433124,-99999.0,'11111222,11111222,99999999' 
TABS,ioos:station:wmo:42048:1,2001-08-03T19:00:00Z,27.9396,-96.8429,2.0,232.8997429,29.89024088,-99999.0,'11111222,11111222,99999999' 
TABS,ioos:station:wmo:42048:1,2001-08-03T19:30:00Z,27.9396,-96.8429,2.0,236.8658413,29.71114269,-99999.0,'11111222,11111222,99999999' 
TABS,ioos:station:wmo:42048:1,2001-08-03T20:00:00Z,27.9396,-96.8429,2.0,238.5362459,29.69610917,-99999.0,'11111222,11111222,99999999' 
TABS,ioos:station:wmo:42048:1,2001-08-03T20:30:00Z,27.9396,-96.8429,2.0,241.4048697,32.07192074,-99999.0,'11111222,11111222,99999999' 
TABS,ioos:station:wmo:42048:1,2001-08-03T21:00:00Z,27.9396,-96.8429,2.0,243.0776124,31.58283711,-99999.0,'11111222,11111222,99999999' 
TABS,ioos:station:wmo:42048:1,2001-08-03T21:30:00Z,27.9396,-96.8429,2.0,247.002936,32.04684696,-99999.0,'11111222,11111222,99999999' 
TABS,ioos:station:wmo:42048:1,2001-08-03T22:00:00Z,27.9396,-96.8429,2.0,244.2529301,32.25186196,-99999.0,'11111222,11111222,99999999' 
TABS,ioos:station:wmo:42048:1,2001-08-03T22:30:00Z,27.9396,-96.8429,2.0,247.3132389,32.46156034,-99999.0,'11111222,11111222,99999999' 
TABS,ioos:station:wmo:42048:1,2001-08-03T23:00:00Z,27.9396,-96.8429,2.0,243.8140258,30.38883018,-99999.0,'11111222,11111222,99999999' 
TABS,ioos:station:wmo:42048:1,2001-08-03T23:30:00Z,27.9396,-96.8429,2.0,241.4258727,32.40712267,-99999.0,'11111222,11111222,99999999' 
TABS,ioos:station:wmo:42048:1,2001-08-04T00:00:00Z,27.9396,-96.8429,2.0,239.1798221,31.40492,-99999.0,'11111222,11111222,99999999' 
TABS,ioos:station:wmo:42048:1,2001-08-04T00:30:00Z,27.9396,-96.8429,2.0,245.5682804,33.87308223,-99999.0,'11111222,11111222,99999999' 
TABS,ioos:station:wmo:42048:1,2001-08-04T01:00:00Z,27.9396,-96.8429,2.0,236.0919579,32.85790316,-99999.0,'11111222,11111222,99999999' 
TABS,ioos:station:wmo:42048:1,2001-08-04T01:30:00Z,27.9396,-96.8429,2.0,226.1454445,31.82616848,-99999.0,'11111222,11111222,99999999' 
TABS,ioos:station:wmo:42048:1,2001-08-04T02:00:00Z,27.9396,-96.8429,2.0,230.0478488,31.09897908,-99999.0,'11111222,11111222,99999999' 
TABS,ioos:station:wmo:42048:1,2001-08-04T02:30:00Z,27.9396,-96.8429,2.0,228.6680934,32.9338033,-99999.0,'11111222,11111222,99999999' 
TABS,ioos:station:wmo:42048:1,2001-08-04T03:00:00Z,27.9396,-96.8429,2.0,228.6787086,32.72871064,-99999.0,'11111222,11111222,99999999' 
TABS,ioos:station:wmo:42048:1,2001-08-04T03:30:00Z,27.9396,-96.8429,2.0,226.7576337,30.8868192,-99999.0,'11111222,11111222,99999999' 
TABS,ioos:station:wmo:42048:1,2001-08-04T04:00:00Z,27.9396,-96.8429,2.0,222.9249652,29.10237963,-99999.0,'11111222,11111222,99999999' 
TABS,ioos:station:wmo:42048:1,2001-08-04T04:30:00Z,27.9396,-96.8429,2.0,226.4641507,28.7745026,-99999.0,'11111222,11111222,99999999' 
TABS,ioos:station:wmo:42048:1,2001-08-04T05:00:00Z,27.9396,-96.8429,2.0,223.7131702,28.02970745,-99999.0,'11111222,11111222,99999999' 
TABS,ioos:station:wmo:42048:1,2001-08-04T05:30:00Z,27.9396,-96.8429,2.0,226.3203029,27.61278327,-99999.0,'11111222,11111222,99999999' 
TABS,ioos:station:wmo:42048:1,2001-08-04T06:00:00Z,27.9396,-96.8429,2.0,227.1875092,27.41329969,-99999.0,'11111222,11111222,99999999' 
TABS,ioos:station:wmo:42048:1,2001-08-04T06:30:00Z,27.9396,-96.8429,2.0,229.5660408,27.79975719,-99999.0,'11111222,11111222,99999999' 
TABS,ioos:station:wmo:42048:1,2001-08-04T07:00:00Z,27.9396,-96.8429,2.0,231.6824911,27.16066457,-99999.0,'11111222,11111222,99999999' 
TABS,ioos:station:wmo:42048:1,2001-08-04T07:30:00Z,27.9396,-96.8429,2.0,231.7615586,28.64616728,-99999.0,'11111222,11111222,99999999' 
TABS,ioos:station:wmo:42048:1,2001-08-04T08:00:00Z,27.9396,-96.8429,2.0,228.9480673,26.08343919,-99999.0,'11111222,11111222,99999999' 
TABS,ioos:station:wmo:42048:1,2001-08-04T08:30:00Z,27.9396,-96.8429,2.0,226.3683669,26.34724464,-99999.0,'11111222,11111222,99999999' 
TABS,ioos:station:wmo:42048:1,2001-08-04T09:00:00Z,27.9396,-96.8429,2.0,224.5346325,26.13552754,-99999.0,'11111222,11111222,99999999' 
TABS,ioos:station:wmo:42048:1,2001-08-04T09:30:00Z,27.9396,-96.8429,2.0,223.6632786,26.98346345,-99999.0,'11111222,11111222,99999999' 
TABS,ioos:station:wmo:42048:1,2001-08-04T10:00:00Z,27.9396,-96.8429,2.0,226.7029611,24.97897716,-99999.0,'11111222,11111222,99999999' 
TABS,ioos:station:wmo:42048:1,2001-08-04T10:30:00Z,27.9396,-96.8429,2.0,224.9996843,29.50049491,-99999.0,'11111222,11111222,99999999' 
TABS,ioos:station:wmo:42048:1,2001-08-04T11:00:00Z,27.9396,-96.8429,2.0,224.9996843,25.71040256,-99999.0,'11111222,11111222,99999999' 
TABS,ioos:station:wmo:42048:1,2001-08-04T11:30:00Z,27.9396,-96.8429,2.0,219.6326908,25.93014655,-99999.0,'11111222,11111222,99999999' 
TABS,ioos:station:wmo:42048:1,2001-08-04T12:00:00Z,27.9396,-96.8429,2.0,220.1926015,26.32626445,-99999.0,'11111222,11111222,99999999' 
TABS,ioos:station:wmo:42048:1,2001-08-04T12:30:00Z,27.9396,-96.8429,2.0,226.2269097,24.76148824,-99999.0,'11111222,11111222,99999999' 
TABS,ioos:station:wmo:42048:1,2001-08-04T13:00:00Z,27.9396,-96.8429,2.0,230.1087011,28.34739671,-99999.0,'11111222,11111222,99999999' 
TABS,ioos:station:wmo:42048:1,2001-08-04T13:30:00Z,27.9396,-96.8429,2.0,226.6606502,25.61509906,-99999.0,'11111222,11111222,99999999' 
TABS,ioos:station:wmo:42048:1,2001-08-04T14:00:00Z,27.9396,-96.8429,2.0,224.3883003,29.82039067,-99999.0,'11111222,11111222,99999999' 
TABS,ioos:station:wmo:42048:1,2001-08-04T14:30:00Z,27.9396,-96.8429,2.0,225.5863086,31.07897199,-99999.0,'11111222,11111222,99999999' 
TABS,ioos:station:wmo:42048:1,2001-08-04T15:00:00Z,27.9396,-96.8429,2.0,225.6289741,28.97191226,-99999.0,'11111222,11111222,99999999' 
TABS,ioos:station:wmo:42048:1,2001-08-04T15:30:00Z,27.9396,-96.8429,2.0,228.3521939,30.71271072,-99999.0,'11111222,11111222,99999999' 
TABS,ioos:station:wmo:42048:1,2001-08-04T16:00:00Z,27.9396,-96.8429,2.0,230.9347823,33.57663622,-99999.0,'11111222,11111222,99999999' 